Back to catalog

FENGYUN 1C DEB

AlivePO
NORAD 30017·DEBRIS·🇨🇳 China

Launched May 10, 1999 from Taiyuan Satellite Launch Center

Loading…

Next Passes (next 24 hours)

TLE

FreshSource: Space-Track

Epoch: Sep 14, 2026, 04:10 UTC

1 30017U 99025MS  26257.17427150  .00000610  00000-0  97243-4 0  9991
2 30017  98.7176 322.3241 0216489  46.7152 315.1882 14.61737712 44671

Track FENGYUN 1C DEB in real time with AllMySat

Download on the App Store